Time,TemperatureF,DewpointF,PressureIn,WindDirection,WindDirectionDegrees,WindSpeedMPH,WindSpeedGustMPH,Humidity,HourlyPrecipIn,Conditions,Clouds,dailyrainin,SoftwareType,DateUTC
2014-08-30 01:23:00,73.0,67.0,30.00,North,-999,-999.0,-999.0,81,0.00,,,0.00,,2014-08-30 05:23:00,
2014-08-30 01:53:00,73.0,67.0,30.00,North,-999,-999.0,-999.0,82,0.00,,,0.00,,2014-08-30 05:53:00,
2014-08-30 02:22:00,73.0,68.0,29.98,North,-999,-999.0,-999.0,83,0.00,,,0.00,,2014-08-30 06:22:00,
2014-08-30 02:32:00,73.0,68.0,29.98,North,-999,-999.0,-999.0,83,0.00,,,0.00,,2014-08-30 06:32:00,
2014-08-30 02:52:00,72.0,67.0,29.98,North,-999,-999.0,-999.0,84,0.00,,,0.00,,2014-08-30 06:52:00,
2014-08-30 03:33:00,72.0,67.0,29.98,North,-999,-999.0,-999.0,84,0.00,,,0.00,,2014-08-30 07:33:00,
2014-08-30 03:53:00,71.0,66.0,29.97,North,-999,-999.0,-999.0,84,0.00,,,0.00,,2014-08-30 07:53:00,
2014-08-30 04:22:00,71.0,66.0,29.97,North,-999,-999.0,-999.0,83,0.00,,,0.00,,2014-08-30 08:22:00,
2014-08-30 05:23:00,70.0,65.0,29.97,North,-999,-999.0,-999.0,83,0.00,,,0.00,,2014-08-30 09:23:00,
2014-08-30 05:54:00,70.0,65.0,29.97,North,-999,-999.0,-999.0,84,0.00,,,0.00,,2014-08-30 09:54:00,
2014-08-30 06:24:00,70.0,65.0,29.98,North,-999,-999.0,-999.0,84,0.00,,,0.00,,2014-08-30 10:24:00,
2014-08-30 07:52:00,71.0,66.0,29.98,North,-999,-999.0,-999.0,83,0.00,,,0.00,,2014-08-30 11:52:00,
2014-08-30 09:22:00,71.0,66.0,29.98,North,-999,-999.0,-999.0,83,0.00,,,0.00,,2014-08-30 13:22:00,
2014-08-30 09:53:00,72.0,67.0,29.98,North,-999,-999.0,-999.0,83,0.00,,,0.00,,2014-08-30 13:53:00,
2014-08-30 10:23:00,72.0,66.0,30.00,North,-999,-999.0,-999.0,82,0.00,,,0.00,,2014-08-30 14:23:00,
2014-08-30 11:22:00,74.0,68.0,30.00,North,-999,-999.0,-999.0,81,0.00,,,0.00,,2014-08-30 15:22:00,
2014-08-30 11:55:00,72.0,66.0,30.00,North,-999,-999.0,-999.0,81,0.00,,,0.00,,2014-08-30 15:55:00,
2014-08-30 12:24:00,72.0,65.0,30.00,North,-999,-999.0,-999.0,80,0.00,,,0.00,,2014-08-30 16:24:00,
2014-08-30 12:54:00,72.0,65.0,29.99,North,-999,-999.0,-999.0,79,0.00,,,0.00,,2014-08-30 16:54:00,
2014-08-30 15:23:00,76.0,66.0,29.96,North,-999,-999.0,-999.0,72,0.00,,,0.00,,2014-08-30 19:23:00,
2014-08-30 16:23:00,78.0,68.0,29.95,North,-999,-999.0,-999.0,72,0.00,,,0.00,,2014-08-30 20:23:00,
2014-08-30 17:22:00,81.0,72.0,29.94,North,-999,-999.0,-999.0,74,0.00,,,0.00,,2014-08-30 21:22:00,
2014-08-30 17:54:00,80.0,71.0,29.93,North,-999,-999.0,-999.0,74,0.00,,,0.00,,2014-08-30 21:54:00,
2014-08-30 18:23:00,80.0,71.0,29.94,North,-999,-999.0,-999.0,75,0.00,,,0.00,,2014-08-30 22:23:00,
2014-08-30 19:23:00,79.0,70.0,29.95,North,-999,-999.0,-999.0,75,0.00,,,0.00,,2014-08-30 23:23:00,